MisrSat-2

operational
NORAD ID: 39678 Int'l Des: 2014-021 Owner: NARSS Country: EG
LEOCIRCULAR

About MisrSat-2

Description loading...

Live Position

Loading 3D Globe...

Upcoming Passes

Altitude History

Altitude vs Time

uPlot chart will show altitude changes over time

Two-Line Element Set

1 39678U 14021A 26062.59344518 .00000264 00000-0 10019-3 0 9992
2 39678 51.6165 264.1681 0000351 65.9329 294.1656 14.55999798627835
Epoch: Mar 3, 2026 • Age: 23 hours

Current Status

Altitude 707.1 km
Velocity 7.51 km/s
Sub-Earth Point 27.90°N, 145.91°E
Launch Date Apr 16, 2014
Age 11.8 years
Type other

Technical Details

Classification Payload
Mass 1080.00 kg
Dry Mass 1000.00 kg
Total Mass 1080.00 kg
Length 2.00 m
Diameter 0.80 m
Span 5.00 m
Shape Hex+3 pan
Manufacturer RKKE
Bus Type 559GK
Phase Status In Orbit
Owner/State NARSS/EG

Large Constellations

Loading constellations...